Time,TemperatureF,DewpointF,PressureIn,WindDirection,WindDirectionDegrees,WindSpeedMPH,WindSpeedGustMPH,Humidity,HourlyPrecipIn,Conditions,Clouds,dailyrainin,SoftwareType,DateUTC
2013-03-02 00:11:00,49.2,48.0,30.20,SW,218,0.0,-999.0,96,-99.99,,,0.00,weatherlink.com 1.10,2013-03-02 08:11:00,
2013-03-02 00:26:00,49.1,48.0,30.19,SW,218,0.0,-999.0,96,-99.99,,,0.00,weatherlink.com 1.10,2013-03-02 08:26:00,
2013-03-02 00:41:00,48.9,48.0,30.19,SW,218,0.0,-999.0,96,-99.99,,,0.01,weatherlink.com 1.10,2013-03-02 08:41:00,
2013-03-02 00:56:00,48.7,48.0,30.18,SW,218,0.0,-999.0,96,-99.99,,,0.01,weatherlink.com 1.10,2013-03-02 08:56:00,
2013-03-02 01:11:00,48.4,48.0,30.18,SW,218,0.0,-999.0,97,-99.99,,,0.02,weatherlink.com 1.10,2013-03-02 09:11:00,
2013-03-02 01:26:00,48.3,48.0,30.18,SW,218,0.0,-999.0,97,-99.99,,,0.03,weatherlink.com 1.10,2013-03-02 09:26:00,
2013-03-02 01:41:00,48.2,47.0,30.18,SW,218,0.0,-999.0,97,-99.99,,,0.04,weatherlink.com 1.10,2013-03-02 09:41:00,
2013-03-02 01:56:00,47.9,47.0,30.16,SW,218,0.0,-999.0,97,-99.99,,,0.04,weatherlink.com 1.10,2013-03-02 09:56:00,
2013-03-02 02:11:00,47.8,47.0,30.16,SW,218,0.0,-999.0,97,-99.99,,,0.05,weatherlink.com 1.10,2013-03-02 10:11:00,
2013-03-02 02:26:00,47.7,47.0,30.16,SW,218,0.0,-999.0,97,-99.99,,,0.06,weatherlink.com 1.10,2013-03-02 10:26:00,
2013-03-02 02:56:00,47.4,47.0,30.15,SSW,200,0.0,-999.0,97,-99.99,,,0.08,weatherlink.com 1.10,2013-03-02 10:56:00,
2013-03-02 03:11:00,47.5,47.0,30.14,SSW,198,0.0,-999.0,98,-99.99,,,0.09,weatherlink.com 1.10,2013-03-02 11:11:00,
2013-03-02 03:26:00,47.7,47.0,30.14,SSW,202,0.0,-999.0,98,-99.99,,,0.09,weatherlink.com 1.10,2013-03-02 11:26:00,
2013-03-02 03:41:00,47.9,47.0,30.14,NW,309,0.0,-999.0,98,-99.99,,,0.10,weatherlink.com 1.10,2013-03-02 11:41:00,
2013-03-02 03:56:00,47.7,47.0,30.13,West,262,0.0,-999.0,98,-99.99,,,0.10,weatherlink.com 1.10,2013-03-02 11:56:00,
2013-03-02 04:11:00,47.6,47.0,30.13,West,261,0.0,-999.0,98,-99.99,,,0.10,weatherlink.com 1.10,2013-03-02 12:11:00,
2013-03-02 04:26:00,47.4,47.0,30.12,SW,228,0.0,-999.0,98,-99.99,,,0.11,weatherlink.com 1.10,2013-03-02 12:26:00,
2013-03-02 04:41:00,47.4,47.0,30.12,SW,228,0.0,-999.0,98,-99.99,,,0.12,weatherlink.com 1.10,2013-03-02 12:41:00,
2013-03-02 04:57:00,47.4,47.0,30.12,SSE,166,0.0,-999.0,98,-99.99,,,0.13,weatherlink.com 1.10,2013-03-02 12:57:00,
2013-03-02 05:12:00,47.4,47.0,30.12,SSE,166,0.0,-999.0,98,-99.99,,,0.14,weatherlink.com 1.10,2013-03-02 13:12:00,
2013-03-02 05:27:00,47.4,47.0,30.11,SSE,166,0.0,-999.0,98,-99.99,,,0.15,weatherlink.com 1.10,2013-03-02 13:27:00,
2013-03-02 05:42:00,47.2,47.0,30.10,SSE,166,0.0,-999.0,98,-99.99,,,0.16,weatherlink.com 1.10,2013-03-02 13:42:00,
2013-03-02 05:56:00,47.2,47.0,30.10,SSE,166,0.0,-999.0,98,-99.99,,,0.16,weatherlink.com 1.10,2013-03-02 13:56:00,
2013-03-02 06:11:00,47.2,47.0,30.10,SSE,166,0.0,-999.0,98,-99.99,,,0.17,weatherlink.com 1.10,2013-03-02 14:11:00,
2013-03-02 06:27:00,47.4,47.0,30.09,SSE,166,0.0,-999.0,98,-99.99,,,0.17,weatherlink.com 1.10,2013-03-02 14:27:00,
2013-03-02 06:42:00,47.4,47.0,30.09,SSE,166,0.0,-999.0,98,-99.99,,,0.17,weatherlink.com 1.10,2013-03-02 14:42:00,
2013-03-02 06:57:00,47.3,47.0,30.09,SSE,166,0.0,-999.0,98,-99.99,,,0.19,weatherlink.com 1.10,2013-03-02 14:57:00,
2013-03-02 07:12:00,47.3,47.0,30.08,SSE,166,0.0,-999.0,98,-99.99,,,0.19,weatherlink.com 1.10,2013-03-02 15:12:00,
2013-03-02 07:27:00,47.3,47.0,30.07,SSE,166,0.0,-999.0,98,-99.99,,,0.20,weatherlink.com 1.10,2013-03-02 15:27:00,
2013-03-02 07:42:00,47.1,47.0,30.07,SSE,166,1.0,-999.0,98,-99.99,,,0.21,weatherlink.com 1.10,2013-03-02 15:42:00,
2013-03-02 07:57:00,47.4,47.0,30.06,South,180,0.0,-999.0,99,-99.99,,,0.21,weatherlink.com 1.10,2013-03-02 15:57:00,
2013-03-02 08:12:00,48.4,48.0,30.06,West,275,1.0,-999.0,99,-99.99,,,0.22,weatherlink.com 1.10,2013-03-02 16:12:00,
2013-03-02 08:27:00,48.8,48.0,30.06,WNW,297,0.0,-999.0,98,-99.99,,,0.22,weatherlink.com 1.10,2013-03-02 16:27:00,
2013-03-02 08:42:00,48.8,48.0,30.06,WNW,289,4.0,-999.0,98,-99.99,,,0.23,weatherlink.com 1.10,2013-03-02 16:42:00,
2013-03-02 08:57:00,48.8,48.0,30.06,NW,304,0.0,-999.0,98,-99.99,,,0.26,weatherlink.com 1.10,2013-03-02 16:57:00,
2013-03-02 09:12:00,48.1,47.0,30.06,North,350,5.0,-999.0,97,-99.99,,,0.30,weatherlink.com 1.10,2013-03-02 17:12:00,
2013-03-02 09:27:00,46.9,46.0,30.06,North,349,2.0,-999.0,98,-99.99,,,0.34,weatherlink.com 1.10,2013-03-02 17:27:00,
2013-03-02 09:42:00,45.9,45.0,30.06,NW,305,3.0,-999.0,97,-99.99,,,0.37,weatherlink.com 1.10,2013-03-02 17:42:00,
2013-03-02 09:57:00,45.6,45.0,30.06,NNE,13,5.0,-999.0,98,-99.99,,,0.40,weatherlink.com 1.10,2013-03-02 17:57:00,
2013-03-02 10:12:00,45.6,45.0,30.06,WNW,286,9.0,-999.0,98,-99.99,,,0.43,weatherlink.com 1.10,2013-03-02 18:12:00,
2013-03-02 10:27:00,44.8,44.0,30.06,WNW,294,11.0,-999.0,97,-99.99,,,0.44,weatherlink.com 1.10,2013-03-02 18:27:00,
2013-03-02 10:42:00,44.4,44.0,30.06,NW,309,6.0,-999.0,97,-99.99,,,0.47,weatherlink.com 1.10,2013-03-02 18:42:00,
2013-03-02 10:57:00,44.2,43.0,30.07,WNW,290,4.0,-999.0,97,-99.99,,,0.49,weatherlink.com 1.10,2013-03-02 18:57:00,
2013-03-02 11:12:00,44.4,44.0,30.08,WNW,286,1.0,-999.0,97,-99.99,,,0.52,weatherlink.com 1.10,2013-03-02 19:12:00,
2013-03-02 11:27:00,43.9,43.0,30.09,NNW,331,2.0,-999.0,97,-99.99,,,0.56,weatherlink.com 1.10,2013-03-02 19:27:00,
2013-03-02 11:42:00,43.9,43.0,30.09,SSW,193,0.0,-999.0,97,-99.99,,,0.57,weatherlink.com 1.10,2013-03-02 19:42:00,
2013-03-02 11:57:00,43.5,43.0,30.10,West,277,0.0,-999.0,97,-99.99,,,0.59,weatherlink.com 1.10,2013-03-02 19:57:00,
2013-03-02 12:12:00,43.1,42.0,30.10,WNW,296,0.0,-999.0,96,-99.99,,,0.61,weatherlink.com 1.10,2013-03-02 20:12:00,
2013-03-02 12:27:00,43.0,42.0,30.10,NW,304,3.0,-999.0,96,-99.99,,,0.62,weatherlink.com 1.10,2013-03-02 20:27:00,
2013-03-02 12:42:00,42.9,42.0,30.10,North,10,0.0,-999.0,96,-99.99,,,0.65,weatherlink.com 1.10,2013-03-02 20:42:00,
2013-03-02 12:57:00,43.0,42.0,30.11,ENE,70,0.0,-999.0,96,-99.99,,,0.66,weatherlink.com 1.10,2013-03-02 20:57:00,
2013-03-02 13:12:00,43.1,42.0,30.10,ENE,73,0.0,-999.0,96,-99.99,,,0.68,weatherlink.com 1.10,2013-03-02 21:12:00,
2013-03-02 13:27:00,43.1,42.0,30.11,WSW,242,0.0,-999.0,96,-99.99,,,0.70,weatherlink.com 1.10,2013-03-02 21:27:00,
2013-03-02 13:42:00,43.1,42.0,30.11,WSW,240,0.0,-999.0,96,-99.99,,,0.72,weatherlink.com 1.10,2013-03-02 21:42:00,
2013-03-02 13:57:00,43.2,42.0,30.11,West,265,0.0,-999.0,96,-99.99,,,0.74,weatherlink.com 1.10,2013-03-02 21:57:00,
2013-03-02 14:12:00,43.3,42.0,30.11,ENE,78,0.0,-999.0,96,-99.99,,,0.75,weatherlink.com 1.10,2013-03-02 22:12:00,
2013-03-02 14:27:00,43.4,42.0,30.11,SSE,158,0.0,-999.0,96,-99.99,,,0.75,weatherlink.com 1.10,2013-03-02 22:27:00,
2013-03-02 14:42:00,43.6,43.0,30.10,WSW,242,0.0,-999.0,96,-99.99,,,0.76,weatherlink.com 1.10,2013-03-02 22:42:00,
2013-03-02 14:57:00,43.5,43.0,30.10,SSW,203,0.0,-999.0,96,-99.99,,,0.76,weatherlink.com 1.10,2013-03-02 22:57:00,
2013-03-02 15:12:00,43.8,43.0,30.10,North,360,2.0,-999.0,95,-99.99,,,0.76,weatherlink.com 1.10,2013-03-02 23:12:00,
2013-03-02 15:27:00,44.1,43.0,30.11,North,355,0.0,-999.0,95,-99.99,,,0.77,weatherlink.com 1.10,2013-03-02 23:27:00,
2013-03-02 15:42:00,43.4,42.0,30.12,WSW,247,0.0,-999.0,95,-99.99,,,0.78,weatherlink.com 1.10,2013-03-02 23:42:00,
2013-03-02 15:57:00,44.1,43.0,30.11,East,79,0.0,-999.0,95,-99.99,,,0.78,weatherlink.com 1.10,2013-03-02 23:57:00,
2013-03-02 16:12:00,44.8,44.0,30.11,NNE,15,3.0,-999.0,95,-99.99,,,0.78,weatherlink.com 1.10,2013-03-03 00:12:00,
2013-03-02 16:27:00,44.5,43.0,30.12,NNE,20,3.0,-999.0,94,-99.99,,,0.79,weatherlink.com 1.10,2013-03-03 00:27:00,
2013-03-02 16:42:00,44.2,43.0,30.12,NNW,328,0.0,-999.0,94,-99.99,,,0.79,weatherlink.com 1.10,2013-03-03 00:42:00,
2013-03-02 16:57:00,44.0,42.0,30.12,West,277,4.0,-999.0,94,-99.99,,,0.79,weatherlink.com 1.10,2013-03-03 00:57:00,
2013-03-02 17:12:00,43.6,42.0,30.12,WNW,294,0.0,-999.0,93,-99.99,,,0.79,weatherlink.com 1.10,2013-03-03 01:12:00,
2013-03-02 17:27:00,43.3,42.0,30.13,West,265,0.0,-999.0,93,-99.99,,,0.79,weatherlink.com 1.10,2013-03-03 01:27:00,
2013-03-02 17:42:00,42.7,41.0,30.12,West,259,0.0,-999.0,93,-99.99,,,0.79,weatherlink.com 1.10,2013-03-03 01:42:00,
2013-03-02 17:57:00,42.1,40.0,30.14,SW,235,0.0,-999.0,92,-99.99,,,0.79,weatherlink.com 1.10,2013-03-03 01:57:00,
2013-03-02 18:12:00,41.3,39.0,30.13,SW,234,0.0,-999.0,92,-99.99,,,0.79,weatherlink.com 1.10,2013-03-03 02:12:00,
2013-03-02 18:27:00,40.5,39.0,30.14,WSW,237,0.0,-999.0,93,-99.99,,,0.79,weatherlink.com 1.10,2013-03-03 02:27:00,
2013-03-02 18:42:00,40.0,38.0,30.14,SW,232,0.0,-999.0,93,-99.99,,,0.79,weatherlink.com 1.10,2013-03-03 02:42:00,
2013-03-02 18:57:00,39.3,38.0,30.14,SW,232,0.0,-999.0,93,-99.99,,,0.79,weatherlink.com 1.10,2013-03-03 02:57:00,
2013-03-02 19:12:00,39.0,38.0,30.15,SW,232,0.0,-999.0,94,-99.99,,,0.79,weatherlink.com 1.10,2013-03-03 03:12:00,
2013-03-02 19:27:00,39.0,38.0,30.15,WSW,239,0.0,-999.0,94,-99.99,,,0.79,weatherlink.com 1.10,2013-03-03 03:27:00,
2013-03-02 19:42:00,38.9,38.0,30.15,WSW,239,0.0,-999.0,95,-99.99,,,0.80,weatherlink.com 1.10,2013-03-03 03:42:00,
2013-03-02 19:57:00,38.9,38.0,30.15,WSW,239,0.0,-999.0,95,-99.99,,,0.80,weatherlink.com 1.10,2013-03-03 03:57:00,
2013-03-02 20:12:00,38.9,38.0,30.16,WSW,239,0.0,-999.0,95,-99.99,,,0.80,weatherlink.com 1.10,2013-03-03 04:12:00,
2013-03-02 20:27:00,38.9,38.0,30.17,WSW,240,0.0,-999.0,95,-99.99,,,0.80,weatherlink.com 1.10,2013-03-03 04:27:00,
2013-03-02 20:42:00,38.6,37.0,30.17,WSW,240,0.0,-999.0,95,-99.99,,,0.80,weatherlink.com 1.10,2013-03-03 04:42:00,
2013-03-02 20:57:00,38.6,37.0,30.17,WSW,240,0.0,-999.0,95,-99.99,,,0.80,weatherlink.com 1.10,2013-03-03 04:57:00,
2013-03-02 21:12:00,38.5,37.0,30.17,WSW,240,0.0,-999.0,95,-99.99,,,0.80,weatherlink.com 1.10,2013-03-03 05:12:00,
2013-03-02 21:27:00,38.1,37.0,30.17,WSW,240,0.0,-999.0,95,-99.99,,,0.80,weatherlink.com 1.10,2013-03-03 05:27:00,
2013-03-02 21:42:00,38.0,37.0,30.17,WSW,240,0.0,-999.0,95,-99.99,,,0.80,weatherlink.com 1.10,2013-03-03 05:42:00,
2013-03-02 21:57:00,38.5,38.0,30.18,WSW,243,0.0,-999.0,96,-99.99,,,0.80,weatherlink.com 1.10,2013-03-03 05:57:00,
2013-03-02 22:12:00,38.7,37.0,30.18,WSW,240,0.0,-999.0,95,-99.99,,,0.80,weatherlink.com 1.10,2013-03-03 06:12:00,
2013-03-02 22:27:00,37.9,37.0,30.18,WSW,240,0.0,-999.0,95,-99.99,,,0.80,weatherlink.com 1.10,2013-03-03 06:27:00,
2013-03-02 22:42:00,37.9,37.0,30.18,WSW,240,0.0,-999.0,95,-99.99,,,0.80,weatherlink.com 1.10,2013-03-03 06:42:00,
2013-03-02 22:58:00,38.3,37.0,30.19,WSW,240,0.0,-999.0,96,-99.99,,,0.81,weatherlink.com 1.10,2013-03-03 06:58:00,
2013-03-02 23:13:00,38.6,38.0,30.19,SW,234,0.0,-999.0,96,-99.99,,,0.81,weatherlink.com 1.10,2013-03-03 07:13:00,
2013-03-02 23:28:00,38.4,37.0,30.19,SW,234,0.0,-999.0,95,-99.99,,,0.81,weatherlink.com 1.10,2013-03-03 07:28:00,
2013-03-02 23:43:00,38.2,37.0,30.20,SW,234,0.0,-999.0,96,-99.99,,,0.81,weatherlink.com 1.10,2013-03-03 07:43:00,
2013-03-02 23:58:00,37.7,36.0,30.19,SW,234,1.0,-999.0,95,-99.99,,,0.81,weatherlink.com 1.10,2013-03-03 07:58:00,